Temperature
0 0 0 0 0 1 1 1 2 2 2 2 2 2 3 3 3 3 3 4 4 4 4 4 4 5 5 4 4 4 5 5 5 5 6 6 6 6 6 6 6 6 6
-1 -1 -0 -0 -0 0 0 1 1 2 2 2 2 2 2 2 3 3 3 3 3 4 4 4 4 4 4 4 4 4 4 4 4 5 5 5 5 6 6 5 6 6 6
-1 -1 -1 -1 -1 -0 -0 0 1 1 1 1 1 2 2 2 2 2 3 3 3 3 3 3 4 3 3 3 3 3 3 4 4 4 4 4 5 5 5 5 5 5 5
-2 -1 -1 -1 -1 -1 -1 -1 -0 0 0 1 1 1 1 1 2 2 2 2 3 3 3 3 3 3 3 3 3 3 3 3 3 3 3 3 4 4 4 5 5 5 5
-2 -2 -1 -1 -1 -1 -1 -1 -1 -1 -0 0 0 0 1 1 1 1 2 2 2 2 2 2 3 3 3 3 3 3 3 3 3 3 3 3 3 4 4 4 4 4 4
-2 -2 -2 -2 -2 -2 -2 -2 -1 -1 -1 -1 -0 -0 0 1 1 1 1 1 1 1 2 2 2 2 2 2 2 2 2 2 2 3 3 3 3 3 3 3 4 4 3
-3 -3 -2 -2 -2 -2 -2 -2 -2 -2 -1 -1 -1 -1 -0 0 0 0 1 1 1 1 1 1 2 2 2 2 2 2 2 2 2 2 2 3 3 3 3 3 3 3 3
-3 -3 -3 -3 -3 -3 -2 -2 -2 -2 -2 -1 -1 -1 -1 -0 -0 0 0 0 1 1 1 1 1 1 2 1 1 2 2 2 2 2 2 2 2 2 3 3 3 2 2
-4 -4 -3 -3 -3 -3 -3 -3 -3 -3 -2 -2 -2 -1 -1 -0 -0 -0 0 0 0 0 1 1 1 1 1 1 1 1 1 1 1 1 1 1 2 2 2 2 2 2 2
-4 -4 -4 -4 -4 -4 -4 -3 -3 -3 -3 -2 -2 -1 -1 -1 -0 -0 -0 -0 -0 0 0 1 1 1 1 1 1 1 1 1 1 1 1 1 1 1 1 1 1 1 1
-5 -5 -4 -4 -4 -4 -4 -4 -3 -3 -3 -3 -2 -2 -2 -1 -1 -0 -1 -1 -0 -0 -0 0 0 0 1 1 0 1 1 1 1 1 0 0 0 0 0 1 1 1 1
-5 -5 -5 -5 -4 -4 -4 -4 -4 -4 -3 -3 -3 -2 -2 -1 -1 -1 -1 -1 -1 -1 -1 -0 -0 0 0 0 0 0 0 0 -0 -0 -0 -0 -0 -0 -0 0 0 0 0
-6 -5 -5 -5 -5 -5 -5 -4 -4 -4 -4 -4 -3 -3 -2 -2 -2 -1 -1 -1 -1 -1 -1 -1 -0 -0 -0 -0 -0 -0 -0 -1 -1 -1 -1 -1 -1 -1 -1 -1 -1 -1 -1
-6 -6 -6 -6 -5 -5 -5 -5 -5 -4 -4 -4 -4 -3 -3 -3 -2 -2 -2 -2 -1 -1 -1 -1 -1 -1 -1 -1 -1 -1 -1 -1 -1 -1 -1 -1 -1 -1 -1 -1 -1 -1 -1
-7 -6 -6 -6 -6 -6 -5 -5 -5 -5 -5 -4 -4 -4 -3 -3 -3 -2 -2 -2 -2 -2 -2 -2 -2 -2 -2 -2 -2 -2 -2 -2 -2 -2 -2 -2 -2 -2 -2 -2 -2 -2 -2
-7 -7 -7 -7 -6 -6 -6 -6 -5 -5 -5 -5 -4 -4 -4 -4 -3 -3 -3 -2 -2 -2 -3 -3 -3 -3 -3 -2 -2 -2 -2 -2 -2 -2 -2 -2 -2 -2 -2 -2 -2 -2 -2
-8 -7 -7 -7 -7 -7 -7 -7 -6 -5 -5 -5 -5 -5 -4 -4 -4 -4 -3 -3 -3 -3 -3 -3 -3 -3 -3 -3 -3 -3 -3 -3 -3 -3 -3 -3 -3 -3 -3 -3 -3 -3 -3
-8 -8 -8 -7 -7 -7 -7 -7 -7 -6 -6 -6 -5 -5 -5 -5 -5 -4 -4 -4 -4 -4 -4 -4 -4 -4 -4 -4 -4 -4 -4 -4 -4 -3 -3 -3 -3 -3 -3 -3 -3 -3 -3
-8 -8 -8 -8 -7 -7 -7 -7 -7 -7 -7 -7 -6 -6 -6 -6 -6 -5 -5 -5 -5 -5 -5 -4 -4 -4 -4 -4 -4 -4 -4 -4 -4 -4 -4 -4 -4 -4 -4 -4 -4 -4 -4
-8 -8 -8 -8 -8 -8 -8 -8 -8 -8 -8 -7 -7 -7 -7 -7 -6 -6 -6 -6 -6 -6 -5 -5 -5 -5 -5 -5 -5 -5 -5 -5 -5 -4 -4 -4 -4 -4 -4 -4 -4 -4 -4
-9 -9 -9 -9 -9 -9 -8 -8 -8 -8 -8 -8 -8 -8 -8 -7 -7 -7 -7 -7 -7 -6 -6 -6 -5 -5 -5 -5 -5 -5 -5 -5 -5 -5 -5 -5 -5 -5 -5 -5 -5 -5 -5
-9 -9 -9 -9 -9 -9 -9 -9 -9 -9 -9 -8 -8 -8 -8 -8 -8 -7 -7 -7 -7 -7 -7 -7 -6 -6 -6 -6 -6 -6 -6 -5 -5 -5 -5 -5 -5 -5 -5 -5 -5 -5 -5
-10 -10 -10 -9 -9 -9 -9 -9 -9 -9 -9 -9 -9 -9 -8 -8 -8 -8 -8 -8 -8 -8 -8 -7 -7 -7 -6 -6 -6 -6 -6 -6 -6 -6 -6 -5 -5 -5 -5 -6 -6 -6 -6
-10 -10 -10 -10 -10 -10 -10 -10 -10 -9 -9 -9 -9 -9 -9 -9 -9 -9 -9 -9 -8 -8 -8 -8 -7 -7 -7 -7 -7 -6 -6 -6 -6 -6 -6 -6 -6 -6 -6 -6 -6 -6 -6
-11 -10 -10 -10 -10 -10 -10 -10 -10 -10 -10 -10 -10 -10 -10 -10 -9 -9 -9 -9 -9 -9 -8 -8 -8 -8 -8 -7 -7 -7 -7 -7 -7 -7 -7 -7 -7 -7 -7 -7 -7 -7 -7
-11 -11 -11 -11 -11 -11 -11 -11 -11 -11 -11 -10 -10 -10 -10 -10 -10 -10 -10 -9 -9 -9 -9 -9 -9 -9 -8 -8 -8 -8 -8 -7 -7 -7 -7 -7 -7 -7 -7 -7 -7 -7 -7
Wind_Speed
5 5 5 5 5 5 5 6 6 6 6 6 6 6 6 6 6 6 7 7 8 7 6 8 8 7 6 5 4 4 3 3 5 3 2 1 2 3 2 4 4 5 5
5 5 6 6 5 5 5 6 6 6 6 6 6 7 7 7 6 7 8 8 9 9 8 8 9 7 7 6 5 6 5 4 5 5 3 3 3 4 4 4 3 4 5
6 6 7 7 6 6 6 6 6 6 6 6 7 7 7 7 7 8 8 8 9 9 9 9 9 9 8 7 7 7 6 5 4 5 4 3 2 2 3 3 3 2 4
6 7 7 6 6 6 6 6 6 6 7 7 7 8 8 8 8 8 8 9 9 9 9 9 9 10 10 9 8 8 7 6 5 5 4 3 3 3 3 4 3 3 3
7 7 7 6 6 6 6 6 6 6 7 6 7 7 7 7 7 8 8 9 9 9 9 9 9 10 11 10 9 8 8 7 6 6 5 4 4 4 5 4 5 3 3
7 7 7 6 6 6 6 6 6 6 6 6 7 8 8 8 9 10 9 9 9 9 9 9 8 10 11 11 11 11 10 9 8 7 6 7 7 6 4 4 4 3 4
7 7 6 6 6 6 6 6 6 7 6 6 7 7 8 9 10 10 11 9 9 9 10 9 8 8 10 9 9 10 11 12 12 10 9 9 7 8 7 6 6 5 5
7 7 7 6 7 7 6 6 7 6 6 6 7 8 8 9 10 10 10 9 8 9 9 10 10 9 9 10 8 9 9 10 10 9 9 9 8 7 8 7 6 4 2
8 8 8 7 7 7 7 7 6 6 6 6 7 7 8 9 9 9 9 7 7 8 8 9 10 10 12 12 10 9 9 8 9 10 10 9 9 10 8 4 4 4 3
9 9 8 7 7 7 8 7 6 6 6 6 7 7 8 8 9 9 9 6 7 7 6 8 10 11 12 13 11 11 11 9 7 6 6 6 7 8 10 8 7 6 3
9 9 9 8 7 7 7 6 6 6 5 6 7 7 6 7 8 9 9 6 6 6 6 6 7 11 13 13 12 10 11 8 7 6 5 4 4 5 6 6 6 6 5
9 9 9 8 7 6 5 5 5 5 5 5 5 6 5 5 5 7 8 8 6 6 6 6 6 9 10 11 10 10 10 8 6 6 5 5 5 5 5 5 5 5 5
9 9 9 9 7 6 5 5 4 4 4 4 4 4 4 4 4 5 6 6 6 4 4 6 7 7 7 7 8 10 8 6 6 6 6 6 5 5 4 3 2 2 2
9 9 9 8 7 6 5 4 4 4 4 4 4 4 4 4 3 3 3 3 4 3 3 3 4 4 4 4 5 5 4 5 6 6 5 4 3 3 4 3 3 3 2
9 8 8 7 7 6 5 4 4 4 5 5 4 3 3 4 5 6 3 3 3 3 2 2 2 2 3 3 3 3 4 4 5 5 5 4 4 4 3 3 3 3 3
8 8 7 6 6 6 5 6 7 6 8 7 7 6 5 6 7 6 5 4 3 3 2 2 3 4 4 4 4 4 4 4 4 4 4 4 4 4 4 3 3 4 4
7 7 6 6 6 6 5 5 5 7 8 8 8 8 7 7 7 6 5 3 2 2 2 2 3 4 4 4 4 4 4 3 3 4 4 4 4 4 4 4 4 4 4
7 8 7 6 5 6 6 5 4 4 5 5 7 9 9 8 7 6 4 3 1 1 0 1 3 3 3 3 3 3 3 3 3 4 4 4 4 4 4 4 4 4 4
7 6 6 5 5 5 5 5 4 4 4 4 4 6 9 8 8 8 7 3 2 1 1 0 1 2 2 2 3 3 4 4 4 3 4 4 4 4 5 5 4 5 4
6 9 8 6 5 5 5 4 4 4 4 4 4 5 6 6 5 5 5 4 3 2 2 1 0 1 1 2 2 3 3 3 3 3 3 4 4 5 5 5 5 5 4
5 6 8 6 4 4 4 4 4 4 4 4 4 6 8 4 4 4 4 4 3 3 3 2 2 1 0 0 1 2 3 3 3 3 3 3 4 4 4 4 4 4 3
5 5 5 4 4 4 4 4 4 4 4 4 4 5 8 5 4 4 4 4 4 4 3 2 2 1 1 1 1 1 2 2 3 3 3 3 3 4 4 4 4 4 4
4 4 4 4 4 5 5 4 4 4 4 4 4 5 5 4 4 4 4 4 4 4 4 3 2 2 2 1 1 1 2 2 2 3 3 3 3 4 4 4 5 4 4
3 3 4 4 3 3 4 4 4 4 4 4 4 4 4 4 4 5 4 4 4 4 4 4 3 3 3 2 2 2 2 3 3 4 4 4 3 3 3 4 4 5 4
3 3 3 3 3 3 3 4 4 4 4 4 4 4 4 4 4 4 4 4 4 5 5 5 4 3 3 4 3 3 3 3 3 2 3 3 3 3 3 3 3 4 4
3 3 3 3 3 3 3 4 4 4 4 4 4 4 4 4 4 4 4 4 4 4 4 4 5 5 5 4 4 4 4 4 3 3 1 2 2 2 2 2 3 4 4
Wind_Direction
300 290 282 280 273 261 257 259 260 267 258 251 251 249 247 245 233 221 224 213 210 215 218 216 217 213 208 204 199 203 209 207 230 245 235 214 199 205 212 210 213 213 223
294 290 282 280 276 271 267 264 264 262 264 256 251 247 245 242 236 225 226 220 212 213 217 218 219 215 210 206 204 207 211 210 215 227 234 220 219 215 208 208 213 219 226
294 290 286 277 272 272 273 274 270 262 262 259 249 245 244 242 239 232 228 224 219 217 217 219 219 210 214 212 209 210 214 214 209 212 222 224 222 216 205 216 218 235 248
300 291 283 277 271 268 269 269 271 270 262 255 251 247 245 244 242 238 232 227 224 223 221 220 219 214 214 210 212 212 207 207 208 210 212 211 213 209 200 204 224 237 249
302 299 289 284 275 269 266 265 269 270 269 264 255 252 249 245 239 239 236 228 227 226 222 222 221 220 219 214 212 207 201 205 205 211 216 213 211 203 213 206 219 227 239
305 301 298 292 283 271 267 265 268 270 267 266 262 253 251 249 251 250 243 230 227 225 223 223 223 219 219 220 217 210 205 203 205 212 219 220 218 213 210 210 206 209 236
303 301 298 292 286 277 273 269 265 266 263 262 263 259 257 255 256 253 250 233 227 224 222 220 223 221 215 215 217 216 219 221 215 212 217 221 216 209 203 210 216 217 228
303 302 301 290 289 283 272 268 265 264 260 258 263 261 260 262 261 258 254 234 229 226 222 218 218 220 216 210 210 214 218 222 220 218 218 220 220 217 209 211 216 218 237
306 303 300 291 287 284 274 268 268 266 266 264 265 261 259 265 265 263 251 229 229 229 225 222 218 218 216 208 207 212 218 224 221 219 220 219 217 216 207 190 190 200 231
308 306 305 296 284 280 273 269 271 268 268 272 273 266 259 261 263 260 246 228 228 230 229 226 225 222 215 208 207 209 216 218 203 204 212 218 213 207 207 208 199 202 210
309 308 307 302 288 279 273 268 269 273 273 272 276 277 270 265 262 257 249 233 225 226 230 228 226 223 219 217 217 213 215 206 194 190 194 199 204 205 209 216 209 201 206
316 313 313 310 302 289 277 275 273 269 270 271 276 284 284 277 269 262 256 252 243 229 232 231 229 226 221 219 218 211 200 194 187 186 195 203 208 209 209 213 213 214 218
320 317 316 315 312 305 285 279 280 273 268 274 274 277 291 298 287 281 273 264 255 245 242 237 224 214 207 207 207 201 193 190 188 194 204 211 210 202 189 193 201 204 234
319 319 319 318 319 320 311 294 284 279 274 272 272 278 291 297 289 284 267 259 252 250 251 232 206 197 193 191 197 199 198 196 193 198 199 200 188 190 191 194 204 195 216
321 320 320 320 319 322 321 315 304 294 284 282 276 276 278 283 287 289 273 252 235 219 199 181 173 180 185 185 185 190 193 192 195 192 191 193 191 197 203 196 199 196 210
324 325 324 323 323 322 319 323 326 321 324 322 322 316 311 311 316 311 297 281 265 225 196 191 195 193 192 191 191 192 192 197 197 190 189 194 199 205 206 201 203 207 214
319 320 320 322 323 322 321 321 327 340 345 345 343 340 338 334 333 326 321 305 248 182 181 189 191 195 195 192 192 193 197 196 192 190 193 198 200 203 200 204 208 213 219
321 319 322 320 321 321 321 320 320 328 336 344 350 350 351 349 349 355 2 21 39 69 139 194 198 193 190 193 191 188 187 187 191 197 200 200 199 202 203 205 208 214 222
325 325 324 325 325 322 322 326 328 331 337 340 347 353 358 1 9 14 20 36 29 19 18 312 201 182 184 189 193 192 192 195 195 198 204 202 201 203 208 208 209 217 225
326 328 334 332 334 336 338 339 341 344 347 350 351 350 353 2 12 10 16 21 21 11 4 343 3 160 181 196 192 191 191 195 197 203 207 206 203 204 207 207 206 209 220
326 327 335 337 340 340 343 344 344 347 349 348 347 346 352 1 5 6 9 10 8 1 355 354 1 25 43 174 188 194 200 207 206 205 205 211 205 207 209 208 209 210 213
327 329 334 337 338 343 347 349 349 348 346 344 343 344 351 3 6 4 2 358 358 356 352 354 353 354 349 329 251 219 220 224 220 212 209 209 206 207 206 206 206 206 207
329 332 335 340 343 344 351 356 357 354 349 348 346 348 353 357 356 356 357 355 353 351 348 353 358 353 337 317 287 255 242 240 238 223 213 208 206 208 206 205 203 206 210
333 335 338 341 346 351 350 349 350 349 349 348 347 348 349 349 348 348 348 346 346 347 345 344 345 352 352 339 321 296 276 267 250 230 213 208 209 210 209 208 208 208 208
342 341 342 344 342 340 340 341 342 343 343 342 342 342 343 343 342 341 341 344 346 347 346 340 331 333 342 338 325 309 308 312 299 260 220 205 205 207 206 208 209 206 208
344 343 339 337 335 333 333 334 335 336 335 334 334 335 335 334 333 333 334 339 341 340 338 334 332 329 326 321 320 324 327 324 322 313 262 201 191 196 187 199 203 204 198
Height
1465 1464 1464 1463 1463 1463 1462 1463 1462 1463 1464 1464 1465 1465 1466 1467 1468 1469 1471 1473 1475 1477 1479 1481 1483 1486 1488 1491 1494 1496 1498 1501 1501 1503 1505 1507 1509 1511 1512 1514 1515 1517 1518
1460 1460 1459 1458 1457 1457 1457 1457 1457 1457 1458 1459 1460 1460 1460 1461 1462 1463 1465 1467 1468 1470 1473 1475 1477 1480 1482 1485 1487 1490 1492 1495 1497 1497 1499 1501 1503 1506 1507 1509 1510 1512 1513
1456 1455 1453 1453 1452 1451 1451 1451 1451 1452 1452 1453 1454 1454 1454 1455 1456 1457 1459 1460 1462 1464 1466 1468 1471 1473 1476 1478 1481 1484 1486 1489 1492 1493 1494 1496 1498 1500 1502 1504 1505 1506 1507
1451 1450 1448 1447 1446 1446 1446 1446 1446 1446 1446 1447 1448 1448 1449 1450 1450 1451 1453 1454 1456 1458 1460 1463 1465 1467 1469 1472 1475 1478 1481 1483 1486 1487 1489 1490 1492 1494 1496 1497 1499 1501 1502
1446 1444 1443 1442 1441 1442 1441 1441 1441 1441 1441 1441 1442 1443 1443 1444 1444 1446 1447 1448 1450 1452 1454 1456 1458 1461 1464 1466 1469 1472 1475 1477 1479 1481 1483 1484 1486 1488 1490 1492 1493 1495 1496
1442 1440 1439 1437 1437 1436 1436 1436 1436 1436 1436 1436 1436 1437 1437 1438 1438 1439 1441 1442 1444 1446 1447 1450 1452 1455 1457 1460 1463 1466 1469 1471 1473 1475 1477 1478 1479 1482 1485 1486 1488 1489 1489
1439 1437 1435 1434 1433 1432 1432 1432 1431 1431 1431 1431 1431 1431 1431 1432 1432 1433 1435 1436 1437 1439 1441 1443 1446 1448 1451 1454 1456 1459 1462 1464 1467 1470 1470 1472 1474 1476 1479 1481 1482 1483 1483
1435 1433 1432 1431 1429 1428 1427 1427 1427 1426 1426 1426 1425 1426 1426 1426 1426 1427 1427 1429 1430 1432 1434 1436 1439 1441 1444 1447 1450 1452 1454 1457 1460 1463 1464 1467 1469 1472 1473 1475 1476 1478 1479
1432 1430 1428 1426 1425 1423 1423 1422 1422 1421 1421 1420 1421 1421 1421 1420 1421 1421 1422 1423 1424 1426 1428 1430 1432 1435 1437 1441 1444 1446 1448 1450 1453 1456 1458 1461 1463 1466 1468 1469 1470 1471 1471
1428 1426 1424 1422 1420 1419 1418 1418 1417 1417 1416 1416 1416 1416 1416 1415 1415 1416 1417 1418 1418 1420 1421 1423 1425 1428 1430 1433 1436 1438 1440 1443 1446 1449 1452 1454 1456 1459 1461 1462 1464 1465 1465
1425 1423 1420 1419 1417 1415 1414 1413 1413 1412 1411 1411 1411 1411 1410 1410 1410 1410 1412 1413 1413 1414 1415 1416 1418 1421 1423 1426 1429 1431 1433 1437 1440 1442 1445 1448 1450 1451 1453 1456 1458 1459 1460
1422 1419 1417 1415 1413 1411 1410 1409 1409 1408 1407 1407 1406 1405 1405 1405 1405 1405 1406 1407 1408 1408 1409 1410 1412 1414 1417 1420 1422 1425 1428 1431 1434 1436 1439 1441 1443 1445 1447 1449 1451 1453 1455
1419 1416 1414 1411 1409 1408 1406 1405 1405 1405 1404 1403 1402 1401 1400 1400 1400 1401 1401 1402 1403 1403 1403 1404 1406 1408 1411 1414 1417 1419 1422 1425 1427 1430 1432 1434 1437 1439 1442 1444 1445 1447 1449
1417 1414 1411 1408 1406 1404 1403 1402 1402 1401 1400 1400 1399 1398 1397 1396 1396 1396 1396 1397 1398 1399 1399 1399 1401 1403 1406 1408 1411 1414 1417 1419 1422 1424 1426 1429 1432 1434 1436 1438 1440 1441 1443
1415 1412 1409 1406 1404 1402 1400 1399 1398 1398 1398 1397 1396 1395 1394 1393 1393 1393 1392 1393 1393 1394 1394 1395 1397 1399 1401 1403 1406 1409 1412 1414 1416 1419 1421 1424 1426 1428 1430 1432 1434 1435 1436
1413 1410 1407 1405 1402 1400 1398 1397 1396 1395 1394 1393 1393 1393 1391 1391 1389 1389 1389 1389 1389 1390 1391 1391 1393 1395 1397 1399 1401 1404 1407 1409 1411 1414 1416 1418 1420 1422 1424 1426 1427 1429 1430
1412 1409 1406 1404 1401 1399 1397 1395 1392 1392 1391 1390 1389 1388 1388 1387 1386 1385 1385 1385 1385 1386 1387 1387 1389 1391 1393 1395 1397 1400 1402 1404 1407 1409 1411 1413 1415 1417 1418 1420 1422 1423 1424
1411 1408 1405 1402 1400 1397 1396 1394 1392 1390 1388 1387 1386 1386 1385 1384 1383 1382 1381 1381 1382 1383 1383 1384 1385 1387 1389 1391 1393 1395 1398 1400 1402 1404 1406 1408 1410 1411 1413 1414 1416 1417 1418
1410 1407 1404 1401 1399 1397 1395 1393 1391 1390 1388 1386 1385 1384 1383 1381 1380 1380 1379 1379 1379 1380 1381 1381 1382 1383 1385 1388 1390 1392 1394 1395 1397 1399 1401 1403 1405 1406 1408 1409 1410 1412 1413
1409 1406 1403 1401 1399 1396 1394 1393 1391 1389 1387 1386 1384 1383 1381 1380 1378 1378 1378 1377 1378 1378 1379 1379 1380 1381 1382 1384 1386 1388 1390 1391 1393 1394 1396 1398 1400 1401 1402 1403 1405 1406 1407
1408 1405 1403 1400 1398 1396 1394 1393 1391 1389 1387 1386 1385 1384 1382 1380 1379 1378 1377 1377 1377 1377 1377 1377 1378 1378 1380 1381 1383 1384 1386 1387 1389 1390 1391 1393 1394 1396 1397 1398 1399 1401 1402
1407 1404 1402 1400 1398 1396 1394 1393 1391 1389 1388 1386 1385 1384 1382 1381 1379 1378 1378 1378 1377 1377 1376 1376 1376 1377 1378 1379 1380 1381 1382 1384 1385 1386 1387 1388 1390 1391 1392 1393 1394 1395 1396
1406 1404 1401 1399 1397 1396 1394 1392 1391 1390 1388 1387 1385 1384 1382 1381 1380 1379 1378 1377 1377 1376 1376 1375 1375 1375 1376 1377 1378 1379 1380 1380 1381 1382 1383 1384 1385 1386 1387 1388 1389 1390 1392
1405 1403 1401 1399 1397 1396 1394 1393 1391 1390 1389 1387 1386 1384 1383 1381 1380 1379 1378 1377 1376 1375 1375 1374 1374 1374 1374 1375 1375 1376 1377 1378 1378 1379 1380 1380 1381 1382 1383 1383 1385 1386 1387
1404 1402 1400 1399 1397 1395 1394 1392 1391 1390 1388 1387 1386 1384 1383 1382 1380 1379 1378 1377 1376 1375 1375 1374 1374 1373 1373 1373 1373 1374 1375 1375 1375 1376 1376 1376 1377 1377 1378 1379 1380 1381 1382
1403 1401 1400 1398 1397 1395 1393 1392 1391 1389 1388 1387 1385 1384 1383 1382 1380 1379 1378 1377 1376 1375 1374 1374 1373 1373 1373 1372 1372 1372 1372 1372 1372 1373 1373 1373 1373 1374 1374 1375 1376 1377 1378